Location: Béaulencourt
(50.0796°N, 2.8795°E)
Time: 20:06:13
(UTC+00:00)

Cosmos 1339 Rocket - Pass Details

Date: 20 January 2026
Orbit: 941 x 1006 km, 82.9° (Epoch: 16 February)

Event Time Altitude Azimuth Distance (km) Brightness Sun altitude
Rises 05:29:16 0° 348° (NNW) 3,618 7.3 -20.1°
Reaches altitude 10° 05:31:45 10° 346° (NNW) 2,670 6.6 -19.7°
Maximum altitude 05:37:48 70° 265° (W) 1,009 4.3 -18.7°
Drops below altitude 10° 05:43:52 10° 183° (S) 2,677 6.9 -17.7°
Sets 05:46:22 0° 181° (S) 3,627 7.6 -17.3°
